Home > Weather > Mettmann > Past weeks

Flag for Germany Past Weather in Mettmann, North Rhine-Westphalia, Germany — Yesterday and Last 2 Weeks

Now
50 °F

Partly cloudy.


Feels Like: 48 °F
Forecast: 48 / 68 °F
Wind: 5 mph from Northwest

Location: Duesseldorf

Current Time: May 25, 2016 at 5:24:38 AM

Latest Report: May 25, 2016 at 4:50 AM


Visibility: N/A

Pressure: 29.98 "Hg

Humidity: 88%

Dew Point: 46 °F

Location of MettmannLocation

Past Weather in Mettmann — Graph

°F

Mettmann Temperature Yesterday

Maximum temperature yesterday: 57 °F (at 1:50 PM)
Minimum temperature yesterday: 50 °F (at 12:20 AM)
Average temperature yesterday: 52 °F

High & Low Weather Summary for the Past Weeks

 TemperatureHumidityPressure
High79 °F (May 11, 4:50 PM)100% (May 19, 3:50 AM)30.12 "Hg (May 19, 3:50 AM)
Low41 °F (May 15, 5:20 AM)27% (May 13, 4:20 PM)29.47 "Hg (May 12, 1:20 PM)
Average59 °F69%29.87 "Hg
* Reported May 10 4:20 AM — May 25 4:20 AM, Mettmann, Weather by CustomWeather, © 2016

Note: Actual official high and low records may vary slightly from our data, if they occured in-between our weather recording intervals... More about our weather records

Advertising

Mettmann Weather History for the Previous 24 Hours

Scroll right to see more
 ConditionsComfort  
Time TempWeatherWind HumidityBarometerVisibility
4:20 AM
Wed, May 25
50 °FPassing clouds.3 mph88%29.98 "HgN/A
3:50 AM50 °FPassing clouds.3 mph94%29.98 "HgN/A
3:20 AM50 °FPassing clouds.5 mph94%29.98 "HgN/A
2:50 AM50 °FPassing clouds.3 mph88%29.98 "HgN/A
2:20 AM50 °FPassing clouds.2 mph94%30.01 "HgN/A
1:50 AM50 °FPartly cloudy.6 mph94%30.01 "HgN/A
1:20 AM50 °FPartly cloudy.5 mph94%30.01 "HgN/A
12:50 AM50 °FPassing clouds.5 mph88%30.01 "HgN/A
12:20 AM50 °FPassing clouds.7 mph88%30.01 "HgN/A
11:50 PM
Tue, May 24
52 °FPassing clouds.6 mph82%30.01 "HgN/A
11:20 PM52 °FPassing clouds.5 mph82%30.01 "HgN/A
10:50 PM52 °FPassing clouds.3 mph82%30.01 "HgN/A
10:20 PM52 °FPartly sunny.5 mph82%30.01 "HgN/A
9:50 PM52 °FLight rain. Partly sunny.6 mph82%30.01 "HgN/A
9:20 PM52 °FBroken clouds.6 mph88%30.01 "HgN/A
8:50 PM54 °FBroken clouds.6 mph82%30.01 "HgN/A
8:20 PM54 °FBroken clouds.7 mph82%30.01 "HgN/A
7:50 PM54 °FBroken clouds.8 mph82%30.01 "HgN/A
7:20 PM55 °FBroken clouds.7 mph77%30.01 "HgN/A
6:50 PM55 °FLight rain. Broken clouds.7 mph77%30.01 "HgN/A
6:20 PM55 °FBroken clouds.7 mph77%30.01 "HgN/A
5:50 PM57 °FBroken clouds.7 mph72%30.01 "HgN/A
5:20 PM57 °FLight rain. Broken clouds.9 mph72%30.01 "HgN/A
4:50 PM57 °FPartly sunny.9 mph67%30.01 "HgN/A
4:20 PM57 °FPartly sunny.8 mph72%30.01 "HgN/A
3:50 PM57 °FPartly sunny.8 mph67%30.01 "HgN/A
3:20 PM57 °FPartly sunny.8 mph67%30.01 "HgN/A
2:50 PM55 °FPartly sunny.9 mph72%30.01 "HgN/A
2:20 PM57 °FPartly sunny.10 mph67%30.01 "HgN/A
1:50 PM57 °FBroken clouds.8 mph67%30.04 "HgN/A
1:20 PM54 °FPartly sunny.10 mph72%30.04 "HgN/A
12:50 PM52 °FPartly sunny.9 mph77%30.04 "HgN/A
12:20 PM52 °FPartly sunny.8 mph77%30.04 "HgN/A
11:50 AM52 °FMostly cloudy.7 mph82%30.04 "HgN/A
11:20 AM52 °FPartly sunny.9 mph82%30.04 "HgN/A
10:50 AM52 °FOvercast.12 mph82%30.04 "HgN/A
10:20 AM50 °FPartly sunny.10 mph82%30.04 "HgN/A
9:50 AM50 °FBroken clouds.9 mph82%30.04 "HgN/A
9:20 AM50 °FBroken clouds.13 mph88%30.04 "HgN/A
8:50 AM50 °FMostly cloudy.13 mph82%30.04 "HgN/A
8:20 AM50 °FMostly cloudy.14 mph82%30.01 "HgN/A
7:50 AM50 °FMore clouds than sun.13 mph88%30.01 "HgN/A
7:20 AM50 °FMostly cloudy.13 mph88%30.01 "HgN/A
6:50 AM50 °FMostly cloudy.15 mph88%30.01 "HgN/A
6:20 AM50 °FMostly cloudy.14 mph94%30.01 "HgN/A
5:50 AM50 °FPassing clouds.14 mph94%30.01 "HgN/A
5:20 AM50 °FPartly cloudy.10 mph94%30.01 "HgN/A
Weather by CustomWeather, © 2016

See weather overviewHow to use our weather pages